Location: Liberec
(50.7830°N, 15.0500°E)
Time: 19:36:33
(UTC+02:00)

ISS - Pass Details

Date: 25 May 2021
Orbit: 417 x 422 km, 51.6° (Epoch: 16 June)

Event Time Altitude Azimuth Distance (km) Brightness Sun altitude
Rises 23:49:00 0° 284° (WNW) 2,369 0.5 -16.6°
Reaches altitude 10° 23:51:21 10° 270° (W) 1,503 -0.8 -16.7°
Enters shadow 23:53:41 23° 228° (SW) 940 -2.3 -16.8°
